Torna al catalogo

STARLINK-37510

AttivoComunicazioniVLEO
NORAD 69520·PAYLOAD·🇺🇸 United States

Lanciato Jun 12, 2026 da Cape Canaveral Space Force Station

Loading…

Prossimi Passaggi (prossime 24 ore)

TLE

AggiornatoSource: CelesTrak SupGP

Epoca: Sep 15, 2026, 03:52 UTC

1 69520C 26133N   26258.16159722 -.00036278  00000+0 -10721-2 0  2581
2 69520  53.1562 254.6901 0001285  87.6218 296.6389 15.34401359    10

Traccia STARLINK-37510 in tempo reale con AllMySat

Download on the App Store